McAllen, TX

3:17 PM CDT on September 29, 2016 (GMT -0500)
McAllen Miller International

Weather History for KMFE - December, 2013

Change the Weather History Date:

Sunday, December 1, 2013

  Actual Average Record
Temperature  
Mean Temperature 68 °F 65 °F  
Max Temperature 77 °F 75 °F 95 °F (1950)
Min Temperature 58 °F 55 °F 28 °F (1894)
Degree Days  
Heating Degree Days 0 4  
Month to date heating degree days 0 4  
Since 1 July heating degree days 126 64  
Cooling Degree Days 3 4  
Month to date cooling degree days 3 4  
Year to date cooling degree days 4538 4373  
Growing Degree Days 18 (Base 50)    
Moisture  
Dew Point 61 °F    
Average Humidity 77    
Maximum Humidity 97    
Minimum Humidity 56    
Precipitation  
Precipitation 0.00 in 0.03 in 0.92 in (2009)
Month to date precipitation 0.00 0.03  
Year to date precipitation 15.47 21.04  
Sea Level Pressure  
Sea Level Pressure 30.13 in    
Wind  
Wind Speed 6 mph (SSE)    
Max Wind Speed 15 mph    
Max Gust Speed 21 mph    
Visibility 7 miles    
Events Fog    
T = Trace of Precipitation, MM = Missing Value Source: NWS Daily Summary

Daily Weather History Graph

Daily Weather History Graph

Search for Another Location

Airport or City:

Trip Planner

Search our weather history database for the weather conditions in past years. The results will help you decide how hot, cold, wet, or windy it might be!

Date:

Astronomy

Dec. 01, 2013 Rise Set
Actual Time 7:03 AM CST 5:40 PM CST
Civil Twilight 6:38 AM CST 6:05 PM CST
Nautical Twilight 6:10 AM CST 6:34 PM CST
Astronomical Twilight 5:42 AM CST 7:02 PM CST
Moon 5:30 AM CST (12/1) 4:46 PM CST (12/1)
Length of Visible Light 11h 27m
Length of Day
10h 37m
Waning Crescent, 2% of the Moon is Illuminated
Dec 1
Waning Crescent
Dec 2
New
Dec 9
First Quarter
Dec 17
Full
Dec 25
Last Quarter

Hourly Weather History & Observations

Time (CST) Temp. Dew Point Humidity Pressure Visibility Wind Dir Wind Speed Gust Speed Precip Events Conditions
12:53 AM 60.1 °F 57.9 °F 93% 30.19 in 10.0 mi SE 3.5 mph - N/A   Partly Cloudy
1:53 AM 60.1 °F 59.0 °F 96% 30.18 in 9.0 mi Calm Calm - N/A   Overcast
2:53 AM 60.1 °F 57.9 °F 93% 30.17 in 10.0 mi Calm Calm - N/A   Partly Cloudy
3:53 AM 60.1 °F 57.9 °F 93% 30.17 in 10.0 mi East 3.5 mph - N/A   Overcast
4:53 AM 60.1 °F 57.9 °F 93% 30.15 in 9.0 mi ESE 3.5 mph - N/A   Scattered Clouds
5:31 AM 60.8 °F 59.0 °F 94% 30.15 in 8.0 mi SE 3.5 mph - N/A   Partly Cloudy
5:53 AM 59.0 °F 57.9 °F 96% 30.15 in 7.0 mi SE 4.6 mph - N/A   Clear
6:42 AM 59.0 °F 57.2 °F 94% 30.17 in 4.0 mi West 4.6 mph - N/A   Scattered Clouds
6:48 AM 59.0 °F 57.2 °F 94% 30.17 in 2.5 mi Calm Calm - N/A   Mostly Cloudy
6:53 AM 59.0 °F 57.9 °F 96% 30.17 in 0.8 mi Calm Calm - N/A   Mist
7:17 AM 60.8 °F 59.0 °F 94% 30.18 in 0.2 mi Calm Calm - N/A Fog Fog
7:41 AM 60.8 °F 59.0 °F 94% 30.18 in 0.2 mi Calm Calm - N/A Fog Fog
7:53 AM 60.1 °F 59.0 °F 96% 30.18 in 0.2 mi Calm Calm - N/A Fog Fog
8:01 AM 60.8 °F 60.8 °F 100% 30.18 in 0.2 mi Calm Calm - N/A Fog Fog
8:38 AM 60.8 °F 60.8 °F 100% 30.19 in 0.5 mi Calm Calm - N/A Fog Fog
8:53 AM 62.1 °F 61.0 °F 96% 30.19 in 1.2 mi Calm Calm - N/A   Overcast
8:58 AM 62.6 °F 60.8 °F 94% 30.20 in 3.0 mi Calm Calm - N/A   Overcast
9:26 AM 64.4 °F 62.6 °F 94% 30.20 in 7.0 mi Calm Calm - N/A   Mostly Cloudy
9:53 AM 66.9 °F 64.0 °F 90% 30.19 in 10.0 mi SE 6.9 mph - N/A   Mostly Cloudy
10:01 AM 68.0 °F 62.6 °F 83% 30.19 in 10.0 mi SSE 8.1 mph - N/A   Scattered Clouds
10:53 AM 73.0 °F 64.0 °F 73% 30.17 in 10.0 mi SSE 11.5 mph - N/A   Partly Cloudy
11:48 AM 73.4 °F 64.4 °F 73% 30.15 in 10.0 mi South 13.8 mph - N/A   Mostly Cloudy
11:53 AM 73.0 °F 63.0 °F 71% 30.14 in 10.0 mi South 9.2 mph - N/A   Mostly Cloudy
12:02 PM 73.4 °F 62.6 °F 69% 30.14 in 10.0 mi SSE 13.8 mph - N/A   Mostly Cloudy
12:53 PM 75.0 °F 63.0 °F 66% 30.11 in 10.0 mi South 10.4 mph - N/A   Scattered Clouds
1:53 PM 75.0 °F 62.1 °F 64% 30.07 in 10.0 mi South 10.4 mph - N/A   Partly Cloudy
2:53 PM 75.0 °F 61.0 °F 62% 30.05 in 10.0 mi South 8.1 mph - N/A   Partly Cloudy
3:53 PM 77.0 °F 61.0 °F 58% 30.03 in 10.0 mi South 11.5 mph - N/A   Clear
4:53 PM 75.0 °F 61.0 °F 62% 30.03 in 10.0 mi South 6.9 mph - N/A   Clear
5:53 PM 71.1 °F 63.0 °F 75% 30.04 in 10.0 mi SE 8.1 mph - N/A   Clear
6:53 PM 69.1 °F 62.1 °F 78% 30.04 in 10.0 mi SE 8.1 mph - N/A   Clear
7:53 PM 66.9 °F 62.1 °F 84% 30.05 in 10.0 mi SE 6.9 mph - N/A   Clear
8:53 PM 64.9 °F 62.1 °F 90% 30.05 in 10.0 mi SSE 5.8 mph - N/A   Clear
9:53 PM 64.9 °F 62.1 °F 90% 30.04 in 10.0 mi SSE 4.6 mph - N/A   Clear
10:53 PM 64.9 °F 63.0 °F 93% 30.02 in 10.0 mi SSE 5.8 mph - N/A   Clear
11:53 PM 64.9 °F 63.0 °F 93% 30.00 in 10.0 mi South 5.8 mph - N/A   Clear